This demonstration page uses our WeatherBlox Daily Observations layout. Learn more.

Left ArrowRight Arrow

39.51506, -84.39828

Hourly Observations for October 9, 2015

Temp ( °F °C ) Dew Point ( °F °C ) Humidity (%) Winds ( mph kmh ) Pressure ( in mb ) Visibility ( mi km ) Precip ( " mm )
12:15 am 00:15 Clear 63 17.4 59 15.2 87 87 WSW 5 7 29.97 1015 10 16 N/A
12:35 am 00:35 Clear 67 19.2 61 16.1 82 82 SW 5 7 29.97 1015 10 16 N/A
12:55 am 00:55 Clear 64 17.8 59 15.2 85 85 WSW 3 6 29.97 1015 10 16 N/A
1:15 am 01:15 Clear 64 18 60 15.3 84 84 SW 5 7 29.97 1015 10 16 N/A
1:35 am 01:35 Mostly Cloudy 63 17.3 59 14.8 85 85 SW 6 9 29.94 1014 10 16 N/A
1:55 am 01:55 Partly Cloudy 63 17 58 14.6 86 86 SSW 5 7 29.94 1014 10 16 N/A
2:15 am 02:15 Clear 62 16.6 58 14.2 86 86 SSW 5 7 29.94 1014 10 16 N/A
2:35 am 02:35 Clear 62 16.8 58 14.6 87 87 SSW 6 9 29.94 1014 10 16 N/A
2:55 am 02:55 Mostly Cloudy 64 18 60 15.5 85 85 SSW 3 6 29.94 1014 10 16 N/A
3:15 am 03:15 Partly Cloudy 64 18 60 15.4 85 85 S 6 9 29.94 1014 10 16 N/A
3:35 am 03:35 Partly Cloudy 64 18 60 15.5 85 85 WSW 3 6 29.94 1014 10 16 N/A
3:55 am 03:55 Partly Cloudy 63 17.1 58 14.7 86 86 SW 5 7 29.94 1014 10 16 N/A
4:15 am 04:15 Mostly Cloudy 63 17 58 14.7 86 86 WSW 3 6 29.94 1014 10 16 N/A
4:35 am 04:35 Cloudy 63 17 59 14.8 87 87 SSW 3 6 29.91 1013 10 16 N/A
4:55 am 04:55 Cloudy 63 17.2 59 15 87 87 SW 5 7 29.91 1013 10 16 N/A
5:15 am 05:15 Mostly Cloudy 63 17.3 59 15.1 87 87 SW 5 7 29.94 1014 10 16 N/A
5:35 am 05:35 Cloudy 64 18 60 15.5 85 85 SW 5 7 29.94 1014 10 16 N/A
5:55 am 05:55 Mostly Cloudy 63 17.1 58 14.6 85 85 SW 5 7 29.91 1013 10 16 N/A
6:15 am 06:15 Mostly Cloudy 63 17 58 14.5 85 85 SW 5 7 29.94 1014 10 16 N/A
6:35 am 06:35 Mostly Cloudy 63 17.3 58 14.7 85 85 SW 5 7 29.94 1014 10 16 N/A
6:55 am 06:55 Partly Cloudy 64 18 60 15.5 85 85 SW 5 7 29.94 1014 10 16 N/A
7:15 am 07:15 Clear 63 17.3 59 14.8 85 85 SW 5 7 29.94 1014 10 16 N/A
7:35 am 07:35 Mostly Cloudy 63 17 58 14.5 85 85 SW 5 7 29.94 1014 10 16 N/A
7:55 am 07:55 Mostly Cloudy 63 17.2 58 14.7 85 85 N N/A 29.94 1014 10 16 N/A
8:15 am 08:15 Partly Cloudy 64 18 59 15.2 84 84 SW 5 7 29.94 1014 10 16 N/A
8:35 am 08:35 Sunny 63 17.3 58 14.7 85 85 SW 3 6 29.94 1014 10 16 N/A
8:55 am 08:55 Partly Cloudy 66 18.9 61 16 83 83 WSW 3 6 29.97 1015 10 16 N/A
9:15 am 09:15 Partly Cloudy 67 19.5 61 16.1 81 81 SW 6 9 29.97 1015 10 16 N/A
9:35 am 09:35 Partly Cloudy 69 20.8 62 16.6 77 77 SW 7 11 29.97 1015 10 16 N/A
9:55 am 09:55 Sunny 69 20.8 60 15.8 73 73 WSW 6 9 29.97 1015 10 16 N/A
10:15 am 10:15 Sunny 70 21.1 60 15.4 70 70 W 9 15 29.97 1015 10 16 N/A
10:35 am 10:35 Sunny 72 22.1 61 16.3 70 70 W 5 7 29.97 1015 10 16 N/A
10:55 am 10:55 Partly Cloudy 72 22.3 61 16.1 68 68 WNW 7 11 29.97 1015 10 16 N/A
11:15 am 11:15 Cloudy 74 23.1 62 16.6 67 67 NW 12 19 30.00 1016 10 16 N/A
11:35 am 11:35 Cloudy 72 22.2 61 16.1 68 68 NW 7 11 30.00 1016 10 16 N/A
11:55 am 11:55 Cloudy 69 20.8 59 15 70 70 NW 10 17 30.00 1016 10 16 N/A
12:15 pm 12:15 Cloudy 69 20.8 60 15.3 71 71 NNW 9 15 30.00 1016 10 16 N/A
12:35 pm 12:35 Cloudy 69 20.8 59 15.1 70 70 NNW 8 13 30.00 1016 10 16 N/A
12:55 pm 12:55 Mostly Cloudy 70 20.9 59 14.8 68 68 NW 9 15 30.00 1016 10 16 N/A
1:15 pm 13:15 Mostly Cloudy 69 20.8 59 14.9 69 69 NNW 6 9 30.03 1017 10 16 N/A
1:35 pm 13:35 Cloudy 72 22.3 60 15.4 65 65 N 15 24 30.03 1017 10 16 N/A
1:55 pm 13:55 Mostly Cloudy 70 21.2 57 13.8 63 63 NNW 13 20 30.03 1017 10 16 N/A
2:15 pm 14:15 Cloudy 69 20.8 57 13.9 65 65 NNW 9 15 30.03 1017 10 16 N/A
2:35 pm 14:35 Cloudy 69 20.8 55 12.5 59 59 NNW 13 20 30.03 1017 10 16 N/A
2:55 pm 14:55 Mostly Cloudy 69 20.8 53 11.8 57 57 N 12 19 30.00 1016 10 16 N/A
3:15 pm 15:15 Mostly Cloudy 69 20.8 53 11.6 56 56 NNW 8 13 30.00 1016 10 16 N/A
3:35 pm 15:35 Mostly Cloudy 69 20.8 53 11.7 56 56 N 12 19 30.00 1016 10 16 N/A
3:55 pm 15:55 Mostly Cloudy 69 20.8 53 11.5 55 55 N 10 17 30.00 1016 10 16 N/A
4:15 pm 16:15 Mostly Cloudy 67 19.5 51 10.7 57 57 N 10 17 30.03 1017 10 16 N/A
4:35 pm 16:35 Mostly Cloudy 67 19.5 51 10.6 57 57 N 9 15 30.03 1017 10 16 N/A
4:55 pm 16:55 Cloudy 66 18.7 50 10.2 58 58 N 13 20 30.03 1017 10 16 N/A
5:15 pm 17:15 Cloudy 64 18 49 9.6 58 58 NNW 13 20 30.03 1017 10 16 N/A
5:35 pm 17:35 Cloudy 64 18 49 9.6 58 58 N 9 15 30.03 1017 10 16 N/A
5:55 pm 17:55 Cloudy 64 18 49 9.4 57 57 N 6 9 30.06 1018 10 16 N/A
6:15 pm 18:15 Cloudy 63 17.4 47 8.3 55 55 N 8 13 30.06 1018 10 16 N/A
6:35 pm 18:35 Cloudy 63 17 47 8.1 56 56 N 7 11 30.06 1018 10 16 N/A
6:55 pm 18:55 Cloudy 62 16.6 46 8 57 57 N 6 9 30.06 1018 10 16 N/A
7:15 pm 19:15 Cloudy 62 16.6 47 8.3 58 58 N 6 9 30.09 1019 10 16 N/A
7:35 pm 19:35 Cloudy 62 16.6 47 8.3 58 58 N 7 11 30.09 1019 10 16 N/A
7:55 pm 19:55 Cloudy 62 16.6 46 8 57 57 N 8 13 30.09 1019 10 16 N/A
8:15 pm 20:15 Cloudy 62 16.6 46 7.8 56 56 N 6 9 30.09 1019 10 16 N/A
8:35 pm 20:35 Cloudy 61 16 46 7.8 58 58 N 6 9 30.12 1020 10 16 N/A
8:55 pm 20:55 Cloudy 61 16 46 7.6 58 58 N 8 13 30.15 1021 10 16 N/A
9:15 pm 21:15 Cloudy 61 16 46 7.6 58 58 N 7 11 30.15 1021 10 16 N/A
9:35 pm 21:35 Cloudy 61 16 46 8 59 59 N 7 11 30.15 1021 10 16 N/A
9:55 pm 21:55 Cloudy 61 16 47 8.2 60 60 N 6 9 30.15 1021 10 16 N/A
10:15 pm 22:15 Cloudy 61 16 47 8.5 61 61 N 6 9 30.15 1021 10 16 N/A
10:35 pm 22:35 Cloudy 60 15.8 47 8.5 62 62 NNE 6 9 30.15 1021 10 16 N/A
10:55 pm 22:55 Cloudy 60 15.3 47 8.5 64 64 N 5 7 30.15 1021 10 16 N/A
11:15 pm 23:15 Cloudy 60 15.3 48 9 66 66 N 3 6 30.15 1021 10 16 N/A
11:35 pm 23:35 Mostly Cloudy 59 14.9 48 9.1 68 68 N 5 7 30.15 1021 10 16 N/A
11:55 pm 23:55 Mostly Cloudy 57 13.8 48 8.8 72 72 N N/A 30.18 1022 10 16 N/A

Powered by AerisWeather